Regional Weather Roundup
Issued by NWS

Home | Current Version | Previous Version | Graphics & Text | Print | Product List | Glossary On
Versions: 1 2 3 4 5 6 7 8 9 10 11 12 13 14 15 16 17 18 19 20 21 22 23 24 25 26 27 28 29 30 31 32 33 34 35 36 37 38 39 40 41 42 43 44 45 46 47 48 49 50
000
ASUS43 KDMX 031807
RWRIA

WEATHER ROUNDUP FOR IOWA
NATIONAL WEATHER SERVICE DES MOINES IA
100 PM CDT THU SEP 03 2015

NOTE: "FAIR" INDICATES FEW OR NO CLOUDS BELOW 12,000 FEET WITH NO
SIGNIFICANT WEATHER AND/OR OBSTRUCTIONS TO VISIBILITY.

* - THESE STATIONS ARE NOT NWS STATIONS...THUS NOT UNDER NWS
QUALITY CONTROL.  THEY ALSO DO NOT REPORT WEATHER SUCH
AS PRECIPITATION OR FOG.

IAZ001>003-012>014-020>022-031>034-043>046-031900-
   NORTHWEST IOWA

CITY           SKY/WX    TMP DP  RH WIND       PRES   REMARKS
CARROLL *      SUNNY     84  73  70 S9G17     29.88F HX  91
CHEROKEE *     SUNNY     84  72  67 SE8       29.86S HX  89
DENISON *      SUNNY     82  72  69 S9G17     29.85F HX  87
LE MARS *      SUNNY     84  72  65 SE8G15    29.84F HX  89
ORANGE CITY *  SUNNY     84  72  65 S7        29.85F HX  89
SHELDON *      SUNNY     84  73  70 VRB7G14   29.85F HX  91
SIOUX CITY     SUNNY     85  66  53 SE13      29.82F HX  87
6HR MIN TEMP:  69; 6HR MAX TEMP:  85;

SPENCER        SUNNY     85  72  65 SE9       29.87F HX  91
6HR MIN TEMP:  66; 6HR MAX TEMP:  85;

STORM LAKE *   SUNNY     82  72  69 S10       29.88F HX  87
$$

IAZ055>058-069>071-079>083-090>094-031900-
   SOUTHWEST IOWA

CITY           SKY/WX    TMP DP  RH WIND       PRES   REMARKS
ATLANTIC *     SUNNY     86  72  62 S12       29.88F HX  92
AUDUBON *      SUNNY     88  73  62 S10       29.90F HX  96
CLARINDA *     SUNNY     86  73  66 S13G18    29.90F HX  93
COUNCIL BLFS * SUNNY     86  70  58 S13       29.87F HX  90
CRESTON *      SUNNY     86  72  62 S14G21    29.93F HX  92
LAMONI         SUNNY     86  72  62 S15       29.93F HX  92
6HR MIN TEMP:  71; 6HR MAX TEMP:  86;

RED OAK *      SUNNY     88  73  62 S9G15     29.88F HX  96
SHENANDOAH *   SUNNY     90  72  55 S13       29.88F HX  96
$$

IAZ047>049-059>061-072>074-084-031900-
   CENTRAL IOWA

CITY           SKY/WX    TMP DP  RH WIND       PRES   REMARKS
AMES           SUNNY     87  70  56 SW8       29.89F HX  92
6HR MIN TEMP:  68; 6HR MAX TEMP:  87;

ANKENY *       SUNNY     88  72  58 S8        29.90S HX  94
CHARITON *     SUNNY     86  70  58 SW8       29.94R HX  90
DES MOINES     MOSUNNY   88  69  53 SW12      29.90F HX  92
6HR MIN TEMP:  73; 6HR MAX TEMP:  88;

GRINNELL*      SUNNY     86  72  62 S8        29.92F HX  92
KNOXVILLE *    SUNNY     84  73  70 SW8G15    29.91S HX  91
MARSHALLTOWN   SUNNY     88  71  57 SW9       29.90F HX  94
6HR MIN TEMP:  67; 6HR MAX TEMP:  88;

PELLA *        SUNNY     87  75  66 S7        29.93S HX  96
PERRY *          N/A     87  73  62 S6        29.89F HX  93
$$

IAZ004>006-015-016-023>025-035-036-031900-
   NORTH CENTRAL IOWA

CITY           SKY/WX    TMP DP  RH WIND       PRES   REMARKS
ALGONA *       SUNNY     84  73  70 S9        29.89F HX  91
CLARION *      SUNNY     86  73  66 S8        29.90F HX  93
ESTHERVILLE    SUNNY     83  74  74 SE12      29.88F HX  89
6HR MIN TEMP:  64; 6HR MAX TEMP:  83;

FORT DODGE *   SUNNY     84  72  65 S9        29.89F HX  89
MASON CITY       N/A    N/A N/A N/A S8        29.92F
FOREST CITY *  SUNNY     84  70  61 SE8       29.90F HX  88
IOWA FALLS *     N/A     86  72  62 S3        29.92S HX  92
$$

IAZ007>011-017>019-026>030-037>042-050>054-066-031900-
   NORTHEAST IOWA

CITY           SKY/WX    TMP DP  RH WIND       PRES   REMARKS
CEDAR RAPIDS   SUNNY     86  75  69 S7        29.92F HX  95
6HR MIN TEMP:  68; 6HR MAX TEMP:  86;

CHARLES CITY * SUNNY     86  75  70 SE5G12    29.92F HX  95
CLINTON *      SUNNY     88  73  62 W8        29.96S HX  96
DECORAH *      MOSUNNY   84  73  70 VRB5      29.92S HX  91
DUBUQUE        MOSUNNY   85  73  67 SW7       29.94F HX  91
6HR MIN TEMP:  67; 6HR MAX TEMP:  86;

MONTICELLO *   SUNNY     88  73  62 SW7       29.92F HX  96
OELWEIN *      SUNNY    N/A N/A N/A MISG        N/A
WATERLOO       SUNNY     87  73  62 SW5       29.90F HX  94
6HR MIN TEMP:  70; 6HR MAX TEMP:  87;

$$

IAZ064-065-067-068-078-031900-
   EAST CENTRAL IOWA

CITY           SKY/WX    TMP DP  RH WIND       PRES   REMARKS
DAVENPORT      SUNNY     88  71  57 W8        29.94F HX  94
6HR MIN TEMP:  70; 6HR MAX TEMP:  88;

IOWA CITY      SUNNY     87  72  60 S7        29.93F HX  93
6HR MIN TEMP:  68; 6HR MAX TEMP:  87;

MT. PLEASANT * MOSUNNY   90  64  41 S12G17    29.95F HX  91
MUSCATINE *    SUNNY     90  70  51 SW10G17   29.93F HX  95
QUAD CITIES    SUNNY     90  71  53 SW10      29.93F HX  96
6HR MIN TEMP:  72; 6HR MAX TEMP:  91;

$$

IAZ062-063-075>077-085>089-095>099-031900-
   SOUTHEAST IOWA

CITY           SKY/WX    TMP DP  RH WIND       PRES   REMARKS
BURLINGTON     MOSUNNY   90  71  53 SW9G18    29.94F HX  96
6HR MIN TEMP:  71; 6HR MAX TEMP:  90;

FAIRFIELD *    SUNNY     90  70  51 SW12      29.94F HX  95
FORT MADISON * SUNNY     88  72  58 S7        29.96F HX  94
KEOKUK *       SUNNY     90  70  51 SW10G17   29.94F HX  95
OSKALOOSA *      N/A     87  70  57 SW8       29.93F HX  91
CENTERVILLE *  SUNNY     86  72  62 SW7       29.96F HX  92
OTTUMWA        SUNNY     85  73  67 S10       29.92F HX  91
6HR MIN TEMP:  71; 6HR MAX TEMP:  86; 6HR PCP: TRACE;

WASHINGTON *     N/A    N/A N/A N/A MISG        N/A
$$

ABBREVIATIONS USED IN REMARKS
   TC - TEMPERATURES IN CELSIUS
  WCI - WIND CHILL INDEX
   HX - HEAT INDEX
  VSB - VISIBILITY
$$



USA.gov is the U.S. government's official web portal to all federal, state and local government web resources and services.